Weather in Ushaki

Russia / Saint-Petersburg and Leningrad Oblast     59°30′57″N   30°54′03″E
temp.,
°C
wind,
m/s
gust,
m/s
humid.,
%
clouds,
%
prec.,
mm/h
press.,
hPa
HPBL,
m
19 april, mon
mon1900:00+7ene3107612 0.0 1029320
03:00+5ne279096 0.0 1029203
06:00+4ene279095 0.0 1029202
09:00+8ene366311 0.0 1029550
12:00+11ene454310 0.0 10291282
15:00+13ene45330 0.0 10281632
18:00+12e34385 0.0 10271674
21:00+6ene27635 0.0 1027143
20 april, tue
tue2000:00+4e39673 0.0 1027226
03:00+2e277367 0.0 1027137
06:00+1e2778100 0.0 1026164
09:00+6ese37565 0.0 1025551
12:00+9ese463620 0.0 10231671
15:00+10ese463196 0.0 10211886
18:00+10ese3645100 0.0 10191790
21:00+5ese3974100 0.0 1019562
21 april, wed
wed2100:00+4ene277999 0.0 1016476
03:00+4ene2592100 0.1 1014481
06:00+4ne2593100 0.2 1011557
09:00+4ne2596100 0.3 1008598
12:00+2ne2698100 1.8 1005430
15:00+2n1299100 6.5 1003116
18:00+2wnw1299100 2.5 1002131
21:00+1w24100100 3.4 1002186
22 april, thu
thu2200:00+1wsw2598100 0.6 1002331
03:00+2sw2797100 0.6 1003346
06:000s249898 0.0 100486
09:00+5ssw3685100 0.0 1005375
12:00+10ssw367048 0.0 10061060
15:00+12s476551 0.7 10061475
18:00+9ssw6983100 1.6 10061341
21:00+3s3995100 3.0 1009335
23 april, fri
fri2300:00+3s3109497 0.0 1009283
03:00+2s2896100 0.0 1009217
06:00+2sse2893100 0.0 1009183
09:00+6sse3679100 0.1 1008842
12:00+8s4768100 0.8 10081213
15:00+8s476997 1.4 10071137
18:00+5sw3787100 0.8 1008575
21:00+3ssw26935 1.1 1008132